CZ-6A DEB, 54916

Orbit data source: Space-Track

CZ-6A DEB, 54916 is space debris in SSO originally from a launch on Fri, 11 Nov 2022 UTC launched from the Taiyaun Space Center, China (TSC). Debris objects in space refer to the collection of defunct objects orbiting the Earth. Examples of debris include non-operational satellites, rocket bodies, and fragments generated from explosions, collisions, or faulty payload assembly.

Loading next visibility...
Identifier
54916, 2022-151RD
Orbit
SSO
Country
Flag of CNCN / PRC
Related business
Manufacturer
SAST
Mission
Spacecraft
Bus & Motor
Unknown
Mass
Unknown
Launch date (UTC)
2022-11-11 (4 years ago)
Launch vehicle
Unknown
Launch site
Taiyaun Space Center, China (TSC)
Object type
Payload
Rocket body
Debris
Shape & HBR
Unknown shape, 0.1 m
Radar Cross Section
Medium (>0.1 m² and <1 m²)

Expand to show TLE details & history
Last TLE update: 9 hours ago

TLE from 9 hours ago
0 CZ-6A DEB
1 54916U 22151RD  26237.40292552  .00000279  00000-0  17993-3 0  9995
2 54916  98.8560 236.7336 0050685 149.2181 211.1979 14.10130147191275
Epoch: 2026-08-25T09:40Z
TLE epoch observation values (Epoch: 2026-08-25T09:40:12.764Z)
Latitude
-0.00004°
Longitude
118.00964°
Altitude
893.255 km
Speed
7.389 km/s
True Right ascension
15h 46m 56s
True Declination
0° 00' 00"
Sunlit
Object was in daylight at epoch
Visualization orbit readout
Latitude
Unknown
Longitude
Unknown
Altitude
Unknown
Speed
Unknown
Apparent Right ascension
Unknown
Apparent Declination
Unknown
Sunlit
N/A
Visualization observer readout
Local Sidereal Time
09:47:20
Azimuth
Unknown
Elevation
Unknown
Doppler factor
Unknown
Orbital elements
Apogee altitude
892.772 km
Perigee altitude
819.438 km
Semi-major axis
7,234.242 km
Eccentricity
0.00507
Inclination
98.856°
RAAN
236.7336°
Arg. of periapsis
149.2181°
True anomaly
210.89867°
Mean anomaly
211.1979°
Eccentric anomaly
211.04812°
Mean motion
3.52739 °/min
Orbital period
102.06 mins
BSTAR
0.00017993
Loading maneuver chart data...
Computing Atmospheric mass density...
Loading historical data...
Loading historical data...
Loading historical data...
Loading historical data...
Loading historical data...
Loading historical data...
Loading historical data...

Documentation

Showing up to 5 results
|